Location: Ostrava
(49.8330°N, 18.2830°E)
Time: 15:24:19
(UTC+02:00)

NOAA 19 - Visible Passes

Search period start: 22 July 2014 00:00
Search period end: 01 August 2014 00:00
Orbit: 843 x 864 km, 98.9° (Epoch: 21 July)

Date Brightness Start Highest point End Pass type
(mag) Time Alt. Az. Time Alt. Az. Time Alt. Az.
22 Jul 6.6 02:15:40 10° NNE 02:20:33 31° E 02:24:49 13° SSE visible
22 Jul 5.7 03:56:12 10° N 04:01:28 48° WNW 04:06:45 10° SW visible
23 Jul 6.8 02:04:51 10° NE 02:09:24 26° E 02:13:35 12° SE visible
23 Jul 5.5 03:45:05 10° N 03:50:29 57° WNW 03:55:39 11° SW visible
24 Jul 7.1 01:54:05 10° NE 01:58:14 21° E 02:02:21 10° SE visible
24 Jul 5.3 03:33:59 10° N 03:39:29 69° WNW 03:44:25 13° SSW visible
25 Jul 7.3 01:43:26 10° NE 01:47:03 18° E 01:50:39 10° SE visible
25 Jul 5.2 03:22:55 10° NNE 03:28:28 83° WNW 03:33:11 15° SSW visible
26 Jul 7.5 01:32:58 10° NE 01:35:51 14° E 01:38:43 10° ESE visible
26 Jul 5.3 03:11:52 10° NNE 03:17:26 83° ESE 03:21:57 16° SSW visible
27 Jul 7.6 01:22:56 10° ENE 01:24:37 11° E 01:26:18 10° ESE visible
27 Jul 5.4 03:00:50 10° NNE 03:06:23 69° ESE 03:10:42 17° S visible
28 Jul 5.7 02:49:50 10° NNE 02:55:18 57° E 02:59:28 17° S visible
28 Jul 6.4 04:31:07 10° N 04:35:44 28° WNW 04:40:21 10° WSW visible
29 Jul 6.0 02:38:52 10° NNE 02:44:13 47° E 02:48:14 17° SSE visible
29 Jul 6.2 04:19:55 10° N 04:24:48 33° WNW 04:29:41 10° WSW visible
30 Jul 6.3 02:27:56 10° NNE 02:33:07 38° E 02:36:59 17° SSE visible
30 Jul 6.0 04:08:45 10° N 04:13:51 39° WNW 04:18:58 10° SW visible
31 Jul 6.5 02:17:03 10° NNE 02:21:59 32° E 02:25:45 16° SSE visible
31 Jul 5.7 03:57:36 10° N 04:02:53 47° WNW 04:07:48 12° SW visible
